CAPE
0 0 0 0 0 0 0 0 0 0 0 0 0 0 0 0 0 0 0 0 0 0 0 0 0 0 0 0 0 381 1605 2081 2016 1539 1319 1378 1524 1296 992 783 664 750 652 524
0 0 0 0 0 0 0 0 0 0 0 0 0 0 0 0 0 0 0 0 0 0 0 0 0 0 0 0 0 0 912 2000 2110 1962 1766 1691 1629 954 911 665 613 713 551 228
0 0 0 0 0 0 0 0 0 0 0 0 0 0 0 0 0 0 0 0 0 0 0 0 0 1 2 0 0 0 1 1429 2107 1949 1291 511 392 312 438 500 520 477 475 216
0 0 0 0 0 0 0 0 0 0 0 0 0 0 0 0 0 0 0 0 0 0 0 0 0 0 15 21 0 0 0 411 1849 2013 1484 1180 1584 1226 1044 641 289 230 252 122
0 0 0 0 0 0 0 0 0 0 0 0 0 0 0 0 0 0 0 0 0 0 0 0 0 0 6 39 12 2 334 1049 1884 1693 1741 1577 1658 1333 643 456 329 233 89 81
0 0 0 0 0 0 0 0 0 0 0 0 0 0 0 0 0 0 0 0 0 0 0 0 0 0 0 20 31 292 985 1525 1814 1320 1606 1613 1214 429 752 589 387 167 88 29
0 0 0 0 0 0 0 0 0 0 0 0 0 0 0 1 0 0 0 0 0 0 0 0 0 0 0 1 18 30 787 1259 1320 1440 1122 1157 591 590 903 540 446 112 52 21
0 0 0 0 0 0 0 0 0 0 0 0 0 5 0 0 0 0 0 0 0 0 0 0 0 0 0 0 25 22 238 659 734 654 678 542 292 214 39 128 164 166 53 25
0 0 0 0 0 0 0 0 0 0 0 0 0 0 2 0 0 0 0 0 0 0 0 0 0 0 0 0 1 13 48 141 122 84 103 196 51 41 7 1 0 10 7 0
0 0 0 0 0 0 0 0 0 0 0 0 0 0 0 0 0 0 0 0 0 0 0 0 0 0 0 0 0 21 26 78 3 1 1 22 8 0 0 0 0 1 7 7
0 0 0 0 0 0 0 0 0 0 0 1 0 0 0 0 0 0 0 0 0 0 0 0 0 0 0 0 0 0 24 97 7 1 4 6 1 0 0 0 0 0 0 6
0 0 0 0 0 0 0 0 0 0 0 0 0 0 0 0 0 0 0 0 0 0 0 0 0 0 0 0 0 0 28 48 50 30 9 1 1 0 0 0 0 0 0 0
0 0 0 0 0 0 0 0 0 0 0 0 0 0 0 0 0 0 0 0 0 0 0 0 0 0 0 0 0 0 12 1 1 0 9 1 1 0 1 1 1 0 0 0
0 0 0 0 0 0 0 0 0 0 0 0 0 0 0 0 0 0 0 0 0 0 0 0 0 0 0 0 0 0 1 25 1 2 2 2 1 0 2 0 0 0 0 0
0 0 0 0 0 0 0 0 0 0 0 0 0 0 0 0 0 0 0 0 0 0 0 0 0 0 0 0 0 0 0 28 2 2 1 1 0 0 0 0 0 0 0 0
0 0 0 0 0 0 0 0 0 0 0 0 0 0 0 0 0 1 4 7 10 3 0 0 0 0 0 0 0 0 1 12 0 2 1 0 0 0 0 0 0 0 3 3
0 0 0 0 0 0 0 0 0 0 0 0 0 0 0 0 0 1 0 2 12 0 0 0 0 0 0 2 0 0 1 16 5 1 0 0 0 0 1 2 5 3 2 2
0 0 0 0 0 0 0 0 0 0 0 0 0 0 0 0 0 0 2 7 1 12 0 0 0 0 24 0 0 3 1 18 4 0 0 0 0 1 2 2 1 1 1 2
0 0 0 0 0 0 0 0 0 0 0 0 0 0 0 0 0 0 0 0 5 16 0 0 0 88 42 13 6 6 1 21 2 2 0 1 1 1 1 1 1 1 1 1
0 0 0 0 0 0 0 0 0 0 0 0 0 0 0 0 0 0 0 0 0 3 41 88 112 69 11 1 21 25 1 19 1 1 1 1 1 2 1 1 1 1 0 0
0 0 0 0 0 0 0 0 0 0 0 0 0 0 0 0 0 0 0 0 0 0 34 35 2 0 0 3 9 5 4 15 0 2 0 1 1 1 0 1 0 0 0 0
0 0 0 0 0 0 0 0 0 0 0 0 0 0 0 0 0 0 0 0 0 0 0 1 0 0 0 0 11 2 2 8 0 0 1 1 1 1 1 1 1 0 0 0
0 0 0 0 0 0 0 0 0 0 0 0 0 0 0 0 0 0 0 0 0 0 0 0 1 0 0 0 2 5 4 1 2 0 0 1 1 1 1 0 0 1 0 0
0 0 0 0 0 0 0 0 0 0 0 0 0 0 0 0 0 0 0 0 0 0 0 7 4 0 0 0 0 3 2 0 0 1 1 1 1 2 1 1 0 0 0 0
0 0 0 0 0 0 0 0 0 0 0 0 0 0 0 0 0 0 0 0 0 0 0 0 0 9 0 3 1 3 0 0 1 1 1 1 1 0 0 0 0 0 0 0
0 0 0 0 0 0 0 0 0 0 0 0 0 0 0 0 0 0 0 0 0 0 0 0 0 0 12 7 4 1 0 0 0 1 1 1 1 1 0 0 0 0 0 0
CIN
-0 -0 -0 -0 -0 -0 -0 -0 -0 -0 -0 -0 -0 -0 -0 -0 -0 -0 -0 -0 -0 -0 -0 -0 -0 -0 -0 -0 -0 -251 -136 -105 -93 -119 -121 -88 -73 -92 -100 -121 -101 -78 -83 -83
-0 -0 -0 -0 -0 -0 -0 -0 -0 -0 -0 -0 -0 -0 -0 -0 -0 -0 -0 -0 -0 -0 -0 -0 -0 -0 -0 -0 -0 -0 -212 -115 -120 -111 -137 -101 -110 -150 -142 -143 -119 -73 -86 -118
-0 -0 -0 -0 -0 -0 -0 -0 -0 -0 -0 -0 -0 -0 -0 -0 -0 -0 -0 -0 -0 -0 -0 -0 -0 -0 -225 -0 -0 -0 -68 -167 -126 -137 -193 -307 -275 -235 -172 -157 -134 -111 -94 -115
-0 -0 -0 -0 -0 -0 -0 -0 -0 -0 -0 -0 -0 -0 -0 -0 -0 -0 -0 -0 -0 -0 -0 -0 -0 -0 -537 -552 -0 -0 -0 -362 -114 -124 -190 -213 -123 -140 -158 -193 -199 -176 -124 -133
-0 -0 -0 -0 -0 -0 -0 -0 -0 -0 -0 -0 -0 -0 -0 -0 -0 -0 -0 -0 -0 -0 -0 -0 -0 -0 -536 -494 -618 -42 -461 -213 -104 -148 -146 -154 -119 -155 -269 -217 -178 -167 -181 -159
-0 -0 -0 -0 -0 -0 -0 -0 -0 -0 -0 -0 -0 -0 -0 -0 -0 -0 -0 -0 -0 -0 -0 -0 -0 -0 -0 -555 -550 -397 -188 -105 -87 -138 -111 -128 -201 -364 -217 -181 -156 -178 -178 -198
-0 -0 -0 -0 -0 -0 -0 -0 -0 -0 -0 -0 -0 -0 -0 -0 -0 -0 -0 -0 -0 -0 -0 -0 -0 -0 -0 -110 -526 -489 -217 -121 -137 -88 -141 -119 -246 -310 -210 -209 -168 -216 -218 -198
-0 -0 -0 -0 -0 -0 -0 -0 -0 -0 -0 -0 -0 -25 -0 -0 -0 -0 -0 -0 -0 -0 -0 -0 -0 -0 -0 -0 -438 -501 -377 -252 -230 -245 -209 -199 -243 -218 -332 -171 -211 -182 -192 -163
-0 -0 -0 -0 -0 -0 -0 -0 -0 -0 -0 -0 -0 -0 -0 -0 -0 -0 -0 -0 -0 -0 -0 -0 -0 -0 -0 -0 -0 -454 -446 -412 -417 -404 -366 -268 -286 -204 -165 -60 -0 -207 -224 -0
-0 -0 -0 -0 -0 -0 -0 -0 -0 -0 -0 -0 -0 -0 -0 -0 -0 -0 -0 -0 -0 -0 -0 -0 -0 -0 -0 -0 -0 -296 -424 -373 -0 -0 -0 -353 -330 -0 -0 -0 -0 -70 -187 -156
-0 -0 -0 -0 -0 -0 -0 -0 -0 -0 -0 -2 -0 -0 -0 -0 -0 -0 -0 -0 -0 -0 -0 -0 -0 -0 -0 -0 -0 -0 -275 -232 -244 -0 -115 -105 -14 -0 -0 -0 -0 -0 -115 -129
-0 -0 -0 -0 -0 -0 -0 -0 -0 -0 -0 -0 -0 -0 -0 -0 -0 -0 -0 -0 -0 -0 -0 -0 -0 -0 -0 -0 -0 -0 -167 -172 -170 -244 -261 -0 -0 -0 -0 -0 -0 -0 -0 -0
-0 -0 -0 -0 -0 -0 -0 -0 -0 -0 -0 -0 -0 -0 -0 -0 -0 -0 -0 -0 -0 -0 -0 -0 -0 -0 -0 -0 -0 -0 -27 -103 -5 -0 -201 -0 -0 -0 -0 -0 -0 -0 -0 -0
-0 -0 -0 -0 -0 -0 -0 -0 -0 -0 -0 -0 -0 -0 -0 -0 -0 -0 -0 -0 -0 -0 -0 -0 -0 -0 -0 -0 -0 -0 -28 -154 -0 -0 -0 -0 -0 -0 -0 -0 -0 -0 -0 -0
-0 -0 -0 -0 -0 -0 -0 -0 -0 -0 -0 -0 -0 -0 -0 -0 -0 -0 -0 -0 -0 -0 -0 -0 -0 -0 -0 -0 -0 -0 -0 -101 -0 -0 -0 -0 -0 -0 -0 -0 -0 -0 -0 -0
-0 -0 -0 -0 -0 -0 -0 -0 -0 -0 -0 -0 -0 -0 -0 -0 -0 -0 -0 -0 -0 -0 -0 -0 -0 -0 -0 -0 -0 -0 -0 -27 -0 -0 -0 -0 -0 -0 -0 -0 -0 -0 -0 -0
-0 -0 -0 -0 -0 -0 -0 -0 -0 -0 -0 -0 -0 -0 -0 -0 -0 -0 -1 -5 -0 -0 -0 -0 -0 -0 -0 -39 -0 -0 -0 -0 -0 -0 -0 -0 -0 -0 -0 -0 -0 -0 -0 -0
-0 -0 -0 -0 -0 -0 -0 -0 -0 -0 -0 -0 -0 -0 -0 -0 -0 -0 -1 -0 -0 -57 -0 -0 -0 -0 -27 -20 -0 -0 -0 -1 -0 -0 -0 -0 -0 -0 -0 -0 -0 -0 -0 -0
-0 -0 -0 -0 -0 -0 -0 -0 -0 -0 -0 -0 -0 -0 -0 -0 -0 -0 -0 -0 -0 -12 -0 -0 -0 -16 -24 -1 -0 -0 -0 -0 -0 -0 -0 -0 -0 -0 -0 -0 -0 -0 -0 -0
-0 -0 -0 -0 -0 -0 -0 -0 -0 -0 -0 -0 -0 -0 -0 -0 -0 -0 -0 -0 -0 -3 -3 -14 -1 -13 -0 -0 -6 -0 -0 -1 -0 -0 -0 -0 -0 -0 -0 -0 -0 -0 -0 -0
-0 -0 -0 -0 -0 -0 -0 -0 -0 -0 -0 -0 -0 -0 -0 -0 -0 -0 -0 -0 -0 -0 -14 -12 -15 -0 -0 -0 -0 -14 -4 -1 -0 -0 -0 -0 -0 -0 -0 -0 -0 -0 -0 -0
-0 -0 -0 -0 -0 -0 -0 -0 -0 -0 -0 -0 -0 -0 -0 -0 -0 -0 -0 -0 -0 -0 -0 -15 -0 -0 -0 -0 -0 -0 -0 -0 -0 -0 -0 -0 -0 -0 -0 -0 -0 -0 -0 -0
-0 -0 -0 -0 -0 -0 -0 -0 -0 -0 -0 -0 -0 -0 -0 -0 -0 -0 -0 -0 -0 -0 -0 -0 -30 -0 -0 -0 -0 -0 -0 -0 -0 -0 -0 -0 -0 -0 -0 -0 -0 -0 -0 -0
-0 -0 -0 -0 -0 -0 -0 -0 -0 -0 -0 -0 -0 -0 -0 -0 -0 -0 -0 -0 -0 -0 -0 -53 -42 -0 -0 -0 -0 -0 -0 -0 -0 -0 -0 -0 -0 -0 -0 -0 -1 -0 -0 -0
-0 -0 -0 -0 -0 -0 -0 -0 -0 -0 -0 -0 -0 -0 -0 -0 -0 -0 -0 -0 -0 -0 -0 -0 -0 -0 -0 -0 -21 -0 -0 -0 -0 -0 -0 -0 -0 -0 -0 -0 -0 -0 -0 -0
-0 -0 -0 -0 -0 -0 -0 -0 -0 -0 -0 -0 -0 -0 -0 -0 -0 -0 -0 -0 -0 -0 -0 -0 -0 -1 -0 -0 -0 -0 -0 -0 -0 -0 -0 -0 -0 -0 -0 -0 -0 -0 -0 -0
Wind_Speed
3 2 5 9 5 2 1 3 10 7 10 8 12 14 12 14 14 10 10 13 13 15 16 16 17 17 14 11 10 16 16 18 12 9 8 8 8 7 6 6 8 8 7 8
2 5 7 5 4 5 5 6 10 9 8 4 10 14 13 13 2 10 12 14 17 20 20 19 20 19 17 16 13 12 17 17 16 11 9 5 7 5 5 6 7 8 9 8
7 4 3 4 4 6 6 8 5 11 5 5 5 7 3 1 10 10 13 11 14 17 19 20 21 20 20 18 15 13 15 17 16 16 9 5 7 5 4 5 6 7 9 9
5 3 4 4 5 7 6 8 13 8 3 5 2 9 6 2 6 13 16 16 16 19 17 17 20 20 21 21 17 13 13 14 14 16 14 16 11 8 6 7 6 7 9 10
4 1 1 3 4 4 6 4 4 4 4 3 4 4 4 1 4 12 14 15 16 16 17 19 20 19 20 19 17 11 7 10 10 14 13 12 11 6 8 8 10 9 8 9
4 1 1 2 3 3 3 3 0 1 2 9 11 10 9 3 3 7 14 15 16 17 17 18 18 18 20 20 18 15 4 5 8 9 10 15 14 13 11 10 9 7 6 5
1 2 2 0 2 1 2 3 3 5 4 9 1 6 4 6 5 5 10 14 17 17 17 18 22 21 19 23 19 15 10 3 5 8 7 9 9 14 16 14 10 10 7 4
5 10 6 1 1 1 2 4 6 7 5 5 4 6 3 7 4 6 7 11 15 19 17 16 16 17 17 20 18 16 10 4 3 6 7 7 8 5 6 4 8 8 7 7
6 6 0 1 1 1 3 3 3 2 3 4 6 2 6 3 5 9 12 15 17 18 19 19 19 15 18 18 20 12 10 5 4 3 6 9 6 9 15 7 5 4 6 6
2 4 1 1 0 2 2 3 3 3 4 6 5 5 4 1 8 12 16 18 18 17 16 18 15 14 15 17 16 15 10 6 6 6 6 8 6 10 8 10 8 5 7 9
2 2 1 1 1 1 0 2 5 2 3 4 4 5 4 2 5 11 13 16 17 17 17 15 15 11 9 11 13 12 9 6 5 7 8 9 9 9 4 8 8 8 8 9
2 2 1 1 2 4 2 1 3 5 6 1 2 12 3 8 12 18 20 17 15 16 15 15 15 14 9 10 11 11 5 5 4 5 8 8 9 9 9 8 7 10 9 6
4 2 2 4 1 1 2 1 1 4 3 4 3 6 2 16 21 20 20 19 17 18 18 16 14 13 10 10 10 10 7 2 2 2 5 8 9 12 5 9 9 9 9 8
8 2 5 5 2 3 3 4 2 3 2 2 8 17 16 18 19 20 21 20 18 18 17 15 14 13 11 8 9 10 9 4 4 6 5 7 8 12 10 9 8 10 9 7
3 6 6 3 2 2 3 5 8 6 5 6 5 5 16 18 18 18 19 20 21 21 18 15 13 11 11 9 8 10 11 6 5 6 7 7 9 10 8 10 8 7 7 7
3 2 1 3 2 2 8 10 10 11 9 11 15 18 11 11 16 17 17 18 20 19 18 15 14 13 12 10 9 8 10 8 9 10 9 7 8 10 9 7 8 9 8 7
4 5 3 3 2 4 7 8 14 5 5 5 5 8 10 17 17 18 17 16 20 18 17 15 13 11 11 9 8 10 10 5 9 11 10 9 9 8 8 9 9 8 7 6
6 4 2 1 1 3 1 1 5 6 5 10 7 9 10 14 15 15 12 15 19 16 13 12 11 10 7 8 9 9 8 5 8 11 11 10 10 9 8 8 7 7 7 8
1 4 3 3 3 5 1 1 3 4 4 3 5 8 12 12 12 8 13 11 20 20 9 7 8 7 8 11 9 9 6 6 9 10 11 10 10 9 9 8 8 8 9 9
7 6 4 2 3 4 3 3 2 3 5 6 6 7 10 10 10 8 15 18 8 7 13 7 8 9 11 10 8 8 7 8 10 11 12 11 10 11 9 9 9 8 10 10
3 3 4 2 2 7 8 6 3 3 4 4 3 7 8 7 6 14 17 20 15 10 8 4 7 11 11 12 10 9 9 10 11 12 12 12 11 11 10 10 10 11 12 13
8 8 4 3 2 6 7 2 6 4 2 2 5 4 8 10 12 10 12 11 11 10 8 8 9 11 14 12 9 9 10 9 13 13 13 12 12 9 9 13 10 12 14 14
4 7 7 9 7 3 5 4 4 3 3 3 4 8 6 9 8 11 10 8 9 9 7 7 10 16 17 12 11 12 10 13 15 15 13 12 12 11 12 13 12 11 12 11
3 3 3 3 3 8 7 5 5 4 5 3 5 7 5 6 10 9 8 7 7 7 6 8 10 18 21 17 15 13 13 14 16 15 14 13 12 11 11 9 10 10 10 10
3 6 6 4 7 5 8 7 7 4 4 4 5 4 6 4 10 6 7 8 6 5 4 8 10 16 20 14 7 17 18 15 16 15 13 12 11 11 10 8 8 8 7 9
6 7 6 6 6 3 4 2 1 4 4 5 3 6 7 4 6 6 8 6 7 5 6 9 11 15 19 20 3 13 15 17 16 15 11 11 10 10 10 10 10 14 15 17
Wind_Direction
23 128 210 221 202 141 94 260 275 254 263 286 266 277 272 281 294 325 18 1 350 348 332 342 343 339 320 280 245 228 210 202 184 180 178 198 191 178 189 182 187 193 171 161
13 247 238 207 184 218 224 265 272 283 267 213 270 278 269 263 318 67 22 4 356 348 351 352 350 347 340 317 275 233 222 203 195 187 191 180 165 174 175 176 177 188 166 157
188 202 107 155 205 223 230 241 245 264 329 257 292 277 252 170 111 53 31 11 359 353 347 352 355 348 342 335 320 260 223 217 201 193 161 107 110 102 133 172 168 179 174 163
231 260 223 193 233 191 260 232 250 261 291 271 289 293 251 210 114 23 10 6 0 353 349 352 357 353 349 339 330 286 238 216 210 186 181 175 179 167 183 173 161 148 158 158
253 210 202 218 220 163 239 4 258 245 231 311 228 242 261 322 15 3 2 1 2 1 353 354 2 357 355 346 336 311 255 211 198 193 186 175 183 158 143 149 149 149 151 156
245 47 60 237 276 230 312 298 296 64 177 246 228 211 271 29 22 358 2 1 359 2 4 3 0 5 2 354 346 342 332 176 181 191 186 185 171 147 145 150 154 157 157 152
304 212 293 326 270 151 169 137 271 243 210 254 102 203 270 122 84 31 359 356 354 1 4 6 7 357 4 353 348 342 347 77 138 183 178 194 186 161 156 154 157 158 157 165
209 272 176 117 240 202 213 203 189 222 241 303 313 242 162 135 89 42 15 1 0 2 358 5 11 356 355 355 343 341 347 19 119 139 156 167 160 130 95 113 151 162 167 164
180 264 216 14 59 229 164 200 360 40 52 251 246 198 189 165 26 21 10 357 357 356 352 351 351 0 358 355 343 342 341 18 41 106 123 136 136 141 118 136 58 176 148 148
233 279 241 140 331 65 143 128 141 59 239 238 234 255 240 54 356 350 355 351 345 340 341 341 346 351 352 343 337 337 351 26 59 81 100 106 123 106 127 119 110 200 146 147
134 172 156 84 345 180 237 191 66 94 212 255 283 265 130 145 332 337 336 335 331 330 329 330 326 332 331 329 320 340 353 3 69 86 95 119 121 101 114 120 149 169 142 147
185 160 145 98 336 268 331 13 167 212 205 170 44 271 121 349 336 340 331 325 320 315 311 312 311 311 317 321 331 336 337 340 57 113 135 130 116 108 140 124 160 148 132 130
172 87 65 309 165 50 156 163 136 101 58 182 218 267 248 335 331 319 314 311 312 307 309 307 304 298 308 310 313 321 338 297 276 253 153 137 131 111 139 130 141 122 121 119
37 190 215 211 172 126 199 176 168 96 143 210 239 279 298 298 302 305 304 302 300 298 297 292 290 290 294 298 305 310 309 168 228 197 160 144 136 118 143 133 115 124 117 118
186 225 210 246 129 156 219 199 180 191 179 218 252 261 283 293 296 299 304 301 296 290 286 281 282 281 278 287 294 309 315 182 170 186 147 139 122 116 117 121 123 120 116 126
206 168 142 307 7 233 252 242 230 231 227 244 265 278 259 295 310 311 303 301 293 279 270 276 277 280 275 282 297 296 310 218 157 174 140 125 115 120 123 123 123 121 118 131
154 142 140 257 14 323 268 239 200 190 205 190 244 302 321 318 313 311 311 310 306 290 268 279 279 286 277 286 294 288 295 255 178 157 145 135 125 127 132 128 129 116 121 121
146 122 101 193 345 231 303 225 168 204 227 219 268 287 283 295 304 313 315 319 326 315 274 270 275 283 282 284 288 275 284 242 180 144 143 139 138 137 133 121 116 115 112 113
111 127 107 169 210 300 350 187 151 189 275 240 224 276 298 304 307 327 337 354 0 352 322 282 275 294 308 302 277 262 269 259 164 158 147 147 142 137 124 122 119 114 110 102
76 63 112 143 137 224 232 217 99 94 280 209 223 285 313 322 344 330 326 327 347 6 332 335 323 336 328 335 294 259 258 255 176 165 153 142 140 129 123 121 116 109 105 101
116 45 151 170 214 282 244 233 100 209 234 244 286 299 297 319 283 296 308 303 320 325 295 323 348 355 335 313 296 284 254 236 171 153 137 134 129 122 125 119 118 115 108 100
163 147 179 104 118 274 182 99 186 214 254 249 299 273 301 304 308 315 302 291 313 319 327 5 338 342 324 307 284 293 265 187 149 142 129 131 125 127 127 122 119 116 114 107
195 183 178 184 208 257 221 210 188 156 238 283 283 291 298 301 316 327 316 318 327 327 345 357 337 325 314 303 281 271 248 152 145 133 131 131 126 130 131 127 125 121 116 119
240 162 158 148 234 228 248 258 248 231 218 261 265 273 283 301 319 328 325 331 336 354 7 345 318 327 311 301 270 230 163 150 139 129 130 129 128 129 129 128 128 128 130 126
185 140 159 263 273 278 266 242 248 221 263 270 287 261 291 312 317 315 316 319 324 356 26 331 316 327 321 336 147 151 147 144 133 129 129 129 129 125 121 113 130 128 127 139
190 170 175 210 209 164 224 240 55 183 258 288 275 308 322 302 305 313 311 314 330 347 13 337 325 330 344 351 48 128 137 138 133 126 130 133 129 125 118 110 91 72 111 118